User: anonymous   Login
Location: Unspecified
(0.0000°N, 0.0000°E)
Time: 02:29:12
(UTC+00:00)
Language:

GALILEO 9 (205) - Orbit

View from above orbital plane
View from above orbital plane
View from above satellite
View from above satellite

Ground track
Ground track

The orbit data is extracted from the following two-line orbital elements,

1 40889U 15045A   23035.92731194  .00000059  00000-0  00000-0 0  9997
2 40889  55.4791 255.5391 0006471  30.0934 330.0188  1.70473322 46078
Epoch (UTC): 04 February 2023 22:15:19
Eccentricity: 0.0006471
inclination: 55.4791°
perigee height: 23203 km
apogee height: 23241 km
right ascension of ascending node: 255.5391°
argument of perigee: 30.0934°
revolutions per day: 1.70473322
mean anomaly at epoch: 330.0188°
orbit number at epoch: 4607

The dashed part of the orbit path shows where the satellite is in the earth's shadow,  

DLR